User: anonymous
Location: Unspecified
(0.0000°N, 0.0000°E)
Time: 11:07:30
(UTC+00:00)
Language:

SO-67 - Orbit

View from above orbital plane
View from above orbital plane
View from above satellite
View from above satellite

Ground track
Ground track

The orbit data is extracted from the following two-line orbital elements,

1 35870U 09049F   14211.13702434  .00005209  00000-0  16304-3 0  3793
2 35870 097.1594 231.0460 0001019 055.9437 030.2503 15.33536466270633
Epoch (UTC): 30 July 2014 03:17:18
Eccentricity: 0.0001019
inclination: 97.1594°
perigee height: 464 km
apogee height: 466 km
right ascension of ascending node: 231.0460°
argument of perigee: 55.9437°
revolutions per day: 15.33536466
mean anomaly at epoch: 30.2503°
orbit number at epoch: 27063

The dashed part of the orbit path shows where the satellite is in the earth's shadow,  

DLR